[[{"header":{"parameterUnit":"m.s-1","parameterCategory":1,"la1":30.2991,"la2":30.254,"lo1":-89.0895,"lo2":-89.0444,"dy":0.0017,"dx":0.0017,"nx":28,"ny":28,"refTime":"2024-09-27T21:00:00:Z","depth":0,"parameterNumber":2,"parameterNumberName":"U-component_of_WINDS"},"data":[0,0,0,0,0,0,0,0,0,0,0,0,0,0,0,0,0,0,0,0,0,0,0,0,0,0,0,0,0,0,0,0,0,0,0,0,0,0,0,0,0,0,0,0,0,0,0,0,0,0,0,0,0,0,0,0,0,0,6.1774,6.1774,0,6.1831,6.1831,6.1832,6.1743,6.174,6.1737,6.1734,6.1796,6.18,6.1805,0,0,0,0,0,0,0,0,0,0,0,0,0,6.1593,6.1596,6.1774,6.1774,6.1775,6.1831,6.1831,6.1832,6.1744,6.174,6.1737,6.1733,6.1795,6.18,6.1805,0,0,0,0,0,0,0,0,0,0,0,0,0,6.1663,6.1598,6.1774,6.1738,6.1735,6.1831,6.1831,6.1832,6.1745,6.174,6.1736,6.1731,6.1793,6.1799,6.1806,6.194,0,0,6.1827,6.183,0,0,0,0,0,0,0,0,6.1659,6.167,6.1742,6.174,6.1737,6.1775,6.179,6.1869,6.1746,6.1741,6.1734,6.1729,6.1793,6.18,6.182,6.1943,6.1946,6.1827,6.1831,6.1834,6.1836,0,0,0,0,0,0,0,6.1654,6.1667,6.1796,6.1743,6.1741,6.172,6.1725,6.1805,6.1792,6.1741,6.1735,6.1743,6.1791,6.1814,6.1821,6.1947,6.1827,6.1833,6.1837,6.184,6.2186,6.2191,0,0,0,0,0,0,6.1653,6.1663,6.1794,6.1798,6.1686,6.1727,6.1733,6.1768,6.1791,6.179,6.1747,6.1738,6.1805,6.1813,6.1823,6.1984,6.1834,6.1841,6.1845,6.2181,6.2187,6.2192,0,0,0,0,0,0,6.165,6.1666,6.1792,6.1729,6.1743,6.1735,6.1776,6.1771,6.1794,6.1795,6.1793,6.1772,6.1802,6.1814,6.1912,6.1985,6.1844,6.185,6.2175,6.2183,6.219,6.2306,0,0,0,0,0,0,6.1645,6.1665,6.1715,6.1731,6.1747,6.1879,6.178,6.1776,6.1806,6.1796,6.1819,6.1818,6.1799,6.1903,6.1919,6.1992,6.1855,6.2168,6.2178,6.2187,6.2295,6.2316,6.2334,0,0,0,0,0,6.1639,6.1745,6.1718,6.1734,6.1809,6.1884,6.1893,6.1868,6.1812,6.1863,6.1864,6.1818,6.1974,6.1914,6.1931,6.2007,6.2163,6.2175,6.2187,6.2287,6.2312,6.2334,0,0,0,0,0,0,6.1738,6.1746,6.1716,6.183,6.1857,6.1868,6.1932,6.1895,6.1939,6.1928,6.1895,6.1901,6.2008,6.2017,6.1949,6.214,6.206,6.2075,6.213,6.2154,6.2173,6.2169,6.1861,0,0,0,0,0,6.1773,6.1832,6.1836,6.1937,6.1952,6.194,6.1971,6.195,6.1976,6.1987,6.1995,6.2024,6.208,6.2117,6.2168,6.2296,6.2301,6.2357,6.2376,6.2392,6.2407,6.2478,6.2504,6.223,6.223,6.223,0,0,6.1847,6.1858,6.1898,6.1958,6.1975,6.2039,6.195,6.202,6.2067,6.1998,6.2092,6.21,6.213,6.2244,6.2295,6.2255,6.2484,6.2407,6.242,6.2426,6.2493,6.2518,6.2542,6.2238,6.2237,6.2236,0,0,6.2013,6.2027,6.2114,6.2134,6.2162,6.2154,6.2175,6.2193,6.2195,6.2288,6.2239,6.2295,6.2391,6.2415,6.244,6.2619,6.2579,6.2637,6.2739,6.2809,6.283,6.2849,6.2916,6.2939,6.2651,6.2651,6.2651,0,6.2101,6.2193,6.2163,6.2238,6.2267,6.2206,6.2295,6.2317,6.2361,6.2383,6.2338,6.2459,6.2474,6.2595,6.2639,6.2661,6.2686,6.2634,6.2829,6.2848,6.2866,6.2928,6.2953,6.2658,6.2657,6.2656,6.2656,0,6.2302,6.2367,6.2434,6.2478,6.2514,6.2596,6.2579,6.262,6.2596,6.2593,6.2691,6.2708,6.2763,6.279,6.2766,6.2909,6.2883,6.2834,6.2754,6.2899,6.2958,6.2981,6.2668,6.2665,6.2663,6.2662,0,0,6.2532,6.256,6.2585,6.2605,6.2633,6.2684,6.2764,6.2817,6.2854,6.2887,6.2954,6.3038,6.2994,6.3022,6.3001,6.3062,6.3206,6.3006,6.3006,6.3045,6.3367,6.3405,6.3433,6.3179,6.3184,6.3187,6.3365,0,6.27,6.2837,6.2813,6.2946,6.3008,6.2953,6.3022,6.3048,6.3048,6.3102,6.3102,6.3163,6.3098,6.3115,6.3173,6.3177,6.3271,6.3163,6.3245,6.3248,6.324,6.3463,6.3503,6.367,6.3388,6.3391,6.3394,0,6.2914,6.2955,6.3095,6.3115,6.314,6.3203,6.3252,6.3302,6.3332,6.3327,6.3361,6.3329,6.3411,6.3329,6.3443,6.337,6.3402,6.3409,6.3415,6.3423,6.3331,6.3479,6.3722,6.3748,6.3429,6.3427,6.3424,0,6.3071,6.3161,6.3257,6.3276,6.3302,6.3348,6.3361,6.3385,6.342,6.3462,6.3485,6.3537,6.3566,6.3608,6.3592,6.3533,6.371,6.3626,6.3711,6.3712,6.3752,6.375,6.4006,6.377,6.377,6.3769,6.3769,0,6.3262,6.3351,6.3329,6.3388,6.3486,6.3459,6.3557,6.3564,6.3586,6.3648,6.3603,6.3662,6.3636,6.3694,6.3683,6.3781,6.3793,6.3794,6.379,6.3799,6.38,6.3821,6.381,6.3776,6.3774,6.3773,6.3772,0,6.3455,6.3443,6.3545,6.3561,6.3567,6.3639,6.3654,6.3711,6.3707,6.3786,6.3803,6.3798,6.3864,6.3853,6.3925,6.3918,6.4041,6.4022,6.4031,6.4027,6.4114,6.4107,6.4394,6.4432,6.417,6.4172,6.4174,0,6.3578,6.3645,6.3669,6.3706,6.3723,6.3783,6.3818,6.3794,6.3833,6.3873,6.3926,6.3987,6.4035,6.4144,6.4148,6.4204,6.4188,6.4284,6.4196,6.4204,6.4192,6.4189,6.4197,6.4303,6.4306,6.4308,6.431,0,6.38,6.3791,6.3843,6.3894,6.3937,6.3975,6.401,6.4044,6.4023,6.4069,6.4135,6.4173,6.4248,6.4311,6.4364,6.4379,6.4343,6.4338,6.4361,6.4372,6.4375,6.4377,6.4081,6.4331,6.4329,6.4328,6.4327,6.4326,6.3963,6.4021,6.4047,6.4107,6.4131,6.4165,6.4219,6.4223,6.4278,6.4336,6.4319,6.4396,6.4426,6.4493,6.4514,6.4575,6.4539,6.4572,6.4581,6.459,6.4602,6.4364,6.4584,6.4583,6.4583,6.4582,6.4582,0,6.4185,6.4199,6.4254,6.4304,6.4352,6.4312,6.4349,6.4392,6.446,6.449,6.4538,6.4616,6.4678,6.4688,6.4746,6.4793,6.4778,6.481,6.4807,6.4812,6.4629,6.4604,6.4821,6.4821,6.4821,6.4821,6.4821,6.4821,6.4305,6.4402,6.4397,6.4506,6.4519,6.4593,6.4618,6.465,6.4675,6.4763,6.4814,6.4819,6.4843,6.4903,6.4958,6.496,6.4985,6.5023,6.5019,6.4848,6.4824,6.4802,6.4778,6.5028,6.5028,6.5196,6.5198,6.5199]},{"header":{"parameterUnit":"m.s-1","parameterCategory":1,"la1":30.2991,"la2":30.254,"lo1":-89.0895,"lo2":-89.0444,"dy":0.0017,"dx":0.0017,"nx":28,"ny":28,"refTime":"2024-09-27T21:00:00:Z","depth":0,"parameterNumber":3,"parameterNumberName":"V-component_of_WINDS"},"data":[0,0,0,0,0,0,0,0,0,0,0,0,0,0,0,0,0,0,0,0,0,0,0,0,0,0,0,0,0,0,0,0,0,0,0,0,0,0,0,0,0,0,0,0,0,0,0,0,0,0,0,0,0,0,0,0,0,0,-0.6084,-0.6083,0,-0.6001,-0.6,-0.5999,-0.5959,-0.5959,-0.5959,-0.5959,-0.5872,-0.587,-0.5868,0,0,0,0,0,0,0,0,0,0,0,0,0,-0.6208,-0.6206,-0.6084,-0.6083,-0.6082,-0.6001,-0.6,-0.5999,-0.5959,-0.5959,-0.5959,-0.5959,-0.5873,-0.587,-0.5867,0,0,0,0,0,0,0,0,0,0,0,0,0,-0.6143,-0.6205,-0.6084,-0.6052,-0.6048,-0.6001,-0.6,-0.5999,-0.5959,-0.5959,-0.5959,-0.5959,-0.5874,-0.5871,-0.5867,-0.5845,0,0,-0.5857,-0.5855,0,0,0,0,0,0,0,0,-0.6146,-0.6138,-0.6058,-0.6054,-0.605,-0.599,-0.6012,-0.5947,-0.5959,-0.5993,-0.5959,-0.5959,-0.5911,-0.5905,-0.5889,-0.5841,-0.5838,-0.5856,-0.5854,-0.5853,-0.5852,0,0,0,0,0,0,0,-0.6151,-0.6141,-0.6051,-0.6057,-0.6052,-0.6042,-0.6033,-0.6,-0.5953,-0.599,-0.5987,-0.5977,-0.5909,-0.5893,-0.5887,-0.5836,-0.5856,-0.5853,-0.5851,-0.585,-0.5769,-0.5769,0,0,0,0,0,0,-0.6161,-0.6145,-0.6054,-0.6049,-0.6099,-0.604,-0.6029,-0.6009,-0.5953,-0.5945,-0.5977,-0.5976,-0.5899,-0.5891,-0.5884,-0.5856,-0.5853,-0.5849,-0.5847,-0.5769,-0.5769,-0.5769,0,0,0,0,0,0,-0.6163,-0.6153,-0.6057,-0.6096,-0.6083,-0.6038,-0.6016,-0.6008,-0.5991,-0.5944,-0.5935,-0.5969,-0.5898,-0.5889,-0.5856,-0.5852,-0.5848,-0.5845,-0.5769,-0.5769,-0.5769,-0.5799,0,0,0,0,0,0,-0.6167,-0.6154,-0.6145,-0.6096,-0.6081,-0.6031,-0.6015,-0.6006,-0.5985,-0.5982,-0.5934,-0.5926,-0.5898,-0.5861,-0.5852,-0.5847,-0.5842,-0.5769,-0.5769,-0.5769,-0.5798,-0.58,-0.5801,0,0,0,0,0,-0.6172,-0.6156,-0.6145,-0.6134,-0.6069,-0.603,-0.6022,-0.599,-0.5985,-0.5976,-0.5946,-0.5927,-0.5854,-0.5858,-0.5848,-0.5842,-0.5769,-0.5769,-0.5769,-0.5797,-0.58,-0.5801,0,0,0,0,0,0,-0.6205,-0.6149,-0.6136,-0.6104,-0.6073,-0.6024,-0.6011,-0.5993,-0.5962,-0.596,-0.5922,-0.5911,-0.5883,-0.5859,-0.5864,-0.5819,-0.581,-0.5808,-0.5835,-0.5837,-0.5839,-0.5845,-0.5839,0,0,0,0,0,-0.6209,-0.6182,-0.6135,-0.6111,-0.6096,-0.6057,-0.6038,-0.6017,-0.5982,-0.5969,-0.5936,-0.5903,-0.5873,-0.5854,-0.5823,-0.5795,-0.5784,-0.5786,-0.5787,-0.5789,-0.5787,-0.5772,-0.5773,-0.5768,-0.5768,-0.5768,0,0,-0.6215,-0.6182,-0.6167,-0.6117,-0.609,-0.6064,-0.6045,-0.6017,-0.5998,-0.5964,-0.5932,-0.5907,-0.5868,-0.5838,-0.5823,-0.5817,-0.5787,-0.5789,-0.579,-0.5788,-0.5772,-0.5773,-0.5773,-0.5768,-0.5768,-0.5768,0,0,-0.6215,-0.6187,-0.6165,-0.6138,-0.6098,-0.6072,-0.6067,-0.6022,-0.6004,-0.5971,-0.5946,-0.5922,-0.587,-0.5844,-0.5824,-0.5817,-0.5798,-0.5808,-0.5816,-0.5802,-0.5802,-0.5803,-0.5801,-0.5801,-0.5806,-0.5806,-0.5806,0,-0.6228,-0.6187,-0.6155,-0.613,-0.6109,-0.6079,-0.6057,-0.6033,-0.5985,-0.5971,-0.5966,-0.5902,-0.5873,-0.5837,-0.5836,-0.582,-0.5814,-0.5812,-0.5805,-0.5805,-0.5805,-0.5802,-0.5802,-0.5808,-0.5808,-0.5807,-0.5807,0,-0.6207,-0.6179,-0.6166,-0.6122,-0.61,-0.6076,-0.6041,-0.6022,-0.6004,-0.5979,-0.5946,-0.5911,-0.5874,-0.5864,-0.5845,-0.5826,-0.5824,-0.5812,-0.5803,-0.5807,-0.5804,-0.5803,-0.581,-0.5809,-0.5809,-0.5809,0,0,-0.6222,-0.6162,-0.6158,-0.6139,-0.6093,-0.6071,-0.6047,-0.6011,-0.5997,-0.5965,-0.5944,-0.5903,-0.5892,-0.587,-0.5847,-0.5835,-0.5833,-0.5825,-0.5824,-0.5828,-0.5812,-0.5821,-0.582,-0.5821,-0.5821,-0.5821,-0.5815,0,-0.6216,-0.6171,-0.6142,-0.6109,-0.6084,-0.6056,-0.6035,-0.6006,-0.5982,-0.5958,-0.5932,-0.5903,-0.5891,-0.5878,-0.5864,-0.5836,-0.5829,-0.5836,-0.5802,-0.5801,-0.5812,-0.5819,-0.5828,-0.5824,-0.5814,-0.5814,-0.5814,0,-0.6201,-0.6172,-0.6136,-0.6096,-0.6084,-0.6066,-0.6032,-0.6009,-0.5975,-0.5959,-0.5936,-0.5914,-0.5888,-0.5881,-0.5845,-0.5851,-0.5835,-0.582,-0.5819,-0.5814,-0.5807,-0.5815,-0.5822,-0.5822,-0.5811,-0.5812,-0.5812,0,-0.6217,-0.6169,-0.6141,-0.6125,-0.6077,-0.6065,-0.6045,-0.6011,-0.5992,-0.5963,-0.5951,-0.5919,-0.5901,-0.5877,-0.5848,-0.5845,-0.5815,-0.5806,-0.5802,-0.5803,-0.5796,-0.5797,-0.5802,-0.5786,-0.5786,-0.5786,-0.5786,0,-0.6212,-0.6192,-0.6148,-0.6132,-0.6108,-0.6077,-0.6055,-0.6032,-0.6003,-0.5982,-0.5956,-0.5937,-0.5899,-0.5875,-0.5852,-0.5827,-0.5819,-0.5806,-0.58,-0.5808,-0.581,-0.5797,-0.5797,-0.5786,-0.5786,-0.5786,-0.5786,0,-0.6225,-0.6195,-0.6164,-0.6122,-0.6111,-0.6096,-0.606,-0.6044,-0.602,-0.5994,-0.5986,-0.5949,-0.592,-0.5889,-0.5849,-0.5833,-0.581,-0.5801,-0.5821,-0.5818,-0.5816,-0.5817,-0.5813,-0.5811,-0.5797,-0.5797,-0.5797,0,-0.6224,-0.6208,-0.6165,-0.615,-0.613,-0.6105,-0.6086,-0.6055,-0.6037,-0.5999,-0.5987,-0.5957,-0.5931,-0.5886,-0.5856,-0.5826,-0.5816,-0.5817,-0.5812,-0.5821,-0.5817,-0.5819,-0.5818,-0.5819,-0.5819,-0.5819,-0.5819,0,-0.6226,-0.6212,-0.6186,-0.6156,-0.6135,-0.6109,-0.6083,-0.6071,-0.6035,-0.6016,-0.5987,-0.5967,-0.5928,-0.5898,-0.5865,-0.5844,-0.5826,-0.5822,-0.5819,-0.5827,-0.584,-0.5834,-0.5826,-0.5822,-0.5821,-0.5821,-0.5821,-0.5821,-0.6232,-0.6217,-0.6185,-0.6158,-0.6135,-0.6111,-0.6094,-0.6069,-0.6045,-0.6011,-0.5994,-0.5965,-0.5934,-0.5888,-0.5868,-0.5846,-0.584,-0.5836,-0.5835,-0.5835,-0.5838,-0.5844,-0.584,-0.5839,-0.5839,-0.5839,-0.5839,0,-0.6232,-0.6211,-0.6186,-0.6151,-0.613,-0.6116,-0.6087,-0.607,-0.6045,-0.6018,-0.5994,-0.5962,-0.5934,-0.5902,-0.5872,-0.5861,-0.5852,-0.5854,-0.5854,-0.585,-0.5844,-0.585,-0.5862,-0.5862,-0.5862,-0.5862,-0.5862,-0.5862,-0.623,-0.6205,-0.6188,-0.6152,-0.613,-0.6103,-0.6088,-0.6066,-0.6045,-0.601,-0.5987,-0.5967,-0.5939,-0.5907,-0.5881,-0.5873,-0.5863,-0.5868,-0.5857,-0.5852,-0.585,-0.5848,-0.5853,-0.5866,-0.5866,-0.5865,-0.5865,-0.5865]}]]